Location: Dominguez Junction
(33.8634°N, 118.2179°W)
Time: 08:29:02
(UTC+00:00)

Daily predictions for brighter satellites

Satellite Brightness Start Highest point End
(mag) Time Altitude Azimuth Time Altitude Azimuth Time Altitude Azimuth
Cosmos 2322 Rocket 4.4 12:03:51 14° NNE 12:06:44 20° ENE 12:10:52 10° ESE
Cosmos 2026 Rocket 4.5 12:09:43 10° SSE 12:15:34 55° E 12:21:30 10° NNE
Cosmos 1937 Rocket 4.3 12:17:46 45° SE 12:17:46 45° SE 12:21:20 10° SSE
ATLAS 2AS CENTAUR R/B 3.3 12:23:27 10° S 12:30:23 56° ESE 12:37:09 10° NE
OAO 2 Rocket 3.5 12:31:15 70° ENE 12:31:15 70° ENE 12:35:50 10° E
Cosmos 2058 Rocket 4.4 12:35:33 21° NNE 12:37:58 37° E 12:42:01 10° SSE
SL-16 R/B 2.4 12:36:15 44° N 12:37:59 69° ENE 12:43:37 10° SSE
Cosmos 1814 Rocket 3.9 12:33:36 10° SSW 12:38:48 82° ESE 12:44:06 10° NNE
Cosmos 2237 4.4 12:40:00 54° SW 12:40:00 54° SW 12:44:45 10° S
OAO 3 Copernicus 4.2 12:42:48 77° NNE 12:42:48 77° NNE 12:47:43 10° E
Cosmos 158 Rocket 4.1 12:37:26 10° S 12:42:44 74° ESE 12:47:58 10° NNE
Cosmos 1092 Rocket 3.9 12:42:26 10° S 12:48:43 88° W 12:54:59 10° N
Centaur D-1AR AC-48 4.4 12:37:59 21° WSW 12:49:05 41° SSW 12:54:27 10° SE
USA 59 Rocket 1.4 12:50:54 33° SSW 12:50:54 33° SSW 12:55:06 10° S
Cosmos-2242 3.8 12:48:41 22° NNE 12:51:05 48° E 12:55:06 10° SSE
Okean 1 4.2 12:52:55 28° NNE 12:54:17 40° E 12:57:38 10° SSE
COSMOS 2455 3.9 13:01:27 26° SW 13:01:27 26° SW 13:05:13 10° SSW
Meteor 1-26 Rocket 4.4 12:56:00 10° N 13:01:40 75° E 13:07:29 10° SSE
Cosmos 2278 3.6 13:01:19 31° NNW 13:04:08 82° WSW 13:09:45 10° SSE
Centaur AC-119 3.6 13:03:37 27° SSW 13:04:24 28° S 13:08:02 10° SE
ISS -3.5 13:08:36 50° S 13:09:15 66° SE 13:12:35 10° NE
Cosmos 405 Rocket 2.5 13:06:32 10° S 13:09:13 58° S 13:09:13 58° S
CZ-4 R/B 3.6 13:05:50 10° N 13:10:26 75° WNW 13:15:02 10° SSW
Cosmos 1626 Rocket 3.4 13:13:16 10° S 13:17:40 83° W 13:22:05 10° N
EPKM 3.7 13:17:00 18° SW 13:17:52 20° SSW 13:19:48 10° SE
SL-24 R/B 4.1 13:15:52 10° N 13:20:31 55° WNW 13:24:35 10° SSW
Cosmos 2360 Rocket 2.2 13:19:26 13° NNW 13:24:34 84° ENE 13:30:10 10° SSE
Cosmos 44 3.3 13:23:03 10° SSW 13:27:28 73° ESE 13:32:11 10° NNE
IRIDIUM 106 4.3 13:27:22 10° S 13:32:35 88° W 13:37:49 10° N
Cosmos 2151 3.2 13:28:43 10° S 13:32:45 67° E 13:36:49 10° NNE
BREEZE-M DEB (TANK) 3.9 13:30:18 10° SW 13:34:19 81° SE 13:49:45 10° NE
Centaur D AC-28 4.4 13:32:36 13° WSW 13:35:42 15° SW 13:38:43 10° S
OAO 3 Rocket 3.0 13:35:14 25° W 13:37:56 77° N 13:42:38 10° E
Cosmos 2344 4.0 13:29:36 10° SSW 13:38:19 68° ESE 13:45:30 10° NE
Cosmos 2219 Rocket 2.6 13:33:30 10° NNW 13:39:06 63° ENE 13:44:38 10° SSE
Helios 1A Rocket 2.3 13:35:49 10° SSE 13:39:08 85° ENE 13:42:29 10° NNW
NOSS 8 (A) 4.4 13:39:37 19° NNW 13:41:44 78° ENE 13:45:33 10° SSE
Cosmos 2333 Rocket 2.6 13:38:26 16° NW 13:42:38 42° WSW 13:47:58 10° S
Cosmos 1484 Rocket 2.2 13:40:53 10° N 13:44:15 77° WNW 13:47:34 10° SSW
Cosmos 2322 Rocket 2.5 13:45:41 11° NNW 13:51:00 48° WSW 13:56:23 10° S
ATLAS 3B R/B 4.5 13:44:37 10° N 13:51:10 29° NE 13:57:24 10° ESE
BREEZE-M DEB (TANK) 3.9 13:55:47 18° NW 13:56:24 20° NNW 13:58:17 10° NNE
Cosmos 1602 Rocket 3.6 13:53:03 10° SSW 13:57:23 56° W 14:01:46 10° N
Cosmos 1812 Rocket 3.6 13:54:50 10° N 13:59:11 82° E 14:03:33 10° S
IRIS 3.9 13:57:52 10° WSW 14:00:49 80° SSE 14:03:45 10° ENE
Cosmos 2221 2.4 13:57:08 10° N 14:01:16 89° W 14:05:24 10° S
Cosmos 1437 Rocket 2.8 13:58:49 10° N 14:02:15 66° E 14:05:44 10° SSE
Meteor 1-25 Rocket 4.5 13:58:50 10° S 14:04:33 78° E 14:10:23 10° N
Cosmos 1842 4.3 14:04:47 10° N 14:07:55 39° E 14:11:02 10° SSE
Okean 1-7 Rocket 3.6 14:04:57 10° SSW 14:09:25 63° W 14:13:51 10° N
SL-4 R/B 1.4 14:07:42 10° NW 14:10:52 75° NE 14:14:00 10° SE
OAO 2 Rocket 3.4 14:10:08 10° W 14:15:22 83° N 14:20:31 10° E
Cosmos 1743 3.9 14:14:26 10° WSW 14:16:31 16° WNW 14:18:37 10° NW
IGS 5A 4.0 14:14:04 10° N 14:17:43 34° WNW 14:21:21 10° SW
Cosmos 2285 Rocket 4.5 14:11:50 10° NNW 14:17:48 42° W 14:23:45 10° S
SL-16 R/B 4.0 14:19:06 10° WNW 14:21:20 12° W 14:23:35 10° WSW
ATLAS 2AS CENTAUR R/B 3.6 14:15:39 10° WSW 14:21:33 28° NW 14:27:22 10° N
KORONAS-FOTON 3.4 14:18:39 10° NNW 14:22:00 69° W 14:25:21 10° S
Meteor 1-19 Rocket 4.4 14:16:32 10° NNW 14:22:27 76° W 14:28:26 10° S
Cosmos 1953 Rocket 4.0 14:18:18 10° S 14:22:34 69° E 14:26:55 10° NNE
ARIANE 5 R/B 2.9 14:18:00 10° NNE 14:23:14 74° ESE 14:28:25 10° S
Meteor 1-10 Rocket 4.4 14:18:16 10° N 14:24:12 80° W 14:30:06 10° S
COSMO-SKYMED 1 3.8 14:21:31 10° SW 14:24:34 20° W 14:27:38 10° NW
CZ-3 R/B 4.3 14:25:36 10° WSW 14:29:55 12° WSW 14:33:05 10° SW
